Regional Weather Roundup
Issued by NWS

Home | Current Version | Previous Version | Text Only | Print | Product List | Glossary On
Versions: 1 2 3 4 5 6 7 8 9 10 11 12 13 14 15 16 17 18 19 20 21 22 23 24 25 26 27
000
ASUS45 KBOU 110410
RWRCO

WEATHER ROUNDUP FOR COLORADO
NATIONAL WEATHER SERVICE DENVER/BOULDER CO
900 PM MST SUN DEC 10 2017

NOTE: "FAIR" INDICATES FEW OR NO CLOUDS BELOW 12000 FEET WITH NO
SIGNIFICANT WEATHER AND/OR OBSTRUCTIONS TO VISIBILITY.

COZ001>005-013-030-031-110500-
...NORTHWEST COLORADO...

CITY           SKY/WX    TMP DP  RH WIND       PRES   REMARKS
CRAIG          FAIR      13   8  81 CALM      30.54R
HAYDEN         FAIR      25  13  60 E12       30.55R WCI  14
MEEKER         FAIR      26   2  35 CALM      30.53R
RABBIT EARS PA FAIR      23   7  50 W10G18    30.55R WCI  12
STEAMBOAT SPGS FAIR      22  10  61 CALM      30.55R
WALDEN         FAIR      12   1  62 S5        30.53R WCI   4
$$

COZ006>008-011-110500-
...WEST CENTRAL VALLEYS...

CITY           SKY/WX    TMP DP  RH WIND       PRES   REMARKS
GRAND JUNCTION FAIR      22   2  42 CALM      30.51S
MONTROSE       FAIR      22   1  40 S7        30.54R WCI  13
EAGLE          FAIR      15   9  76 E7        30.60S WCI   5
RIFLE          FAIR      23   3  42 E3        30.53S
DELTA          FAIR      31  -2  24 SE3       30.54R
NUCLA          FAIR      30  -9  17 E9        30.54S WCI  22
$$

COZ017>023-064>068-110500-
...SOUTHWEST COLORADO...

CITY           SKY/WX    TMP DP  RH WIND       PRES   REMARKS
DURANGO        FAIR      21  -1  38 NE3       30.48S
CORTEZ         FAIR      16  -1  47 NE7       30.49S WCI   6
PAGOSA SPRINGS FAIR      21  -5  31 CALM      30.50S
TELLURIDE      FAIR      31  -9  17 SE8       30.56S WCI  23
WOLF CREEK PAS FAIR      28 -24   9 NW5       30.65S WCI  23
$$

COZ009-010-012-014-032>034-037-058>063-110500-
...CENTRAL COLORADO...

CITY           SKY/WX    TMP DP  RH WIND       PRES   REMARKS
ASPEN          FAIR      21   2  43 S6        30.54R WCI  13
BUENA VISTA    FAIR      32  -8  17 SE3       30.49R
COPPER MTN     NOT AVBL
BERTHOUD PASS  FAIR      19   9  63 NW25      30.54F WCI   2
COTTONWOOD PAS FAIR      41 -24   6 SW7       30.52S
GUNNISON       FAIR      14   1  56 CALM      30.56S
KREMMLING      FAIR      10   5  79 CALM      30.60R
LEADVILLE      FAIR      14  -8  37 NE8       30.54R WCI   3
MONARCH PASS   FAIR      27 -13  17 W15       30.68S WCI  15
SALIDA         FAIR      33  -7  18 W6        30.55S WCI  27
SUNLIGHT       FAIR      28 -13  16 CALM      30.61F
WILKERSON PASS FAIR      32 -17  11 N3        30.57R
$$

COZ069>075-110500-
...SAN LUIS VALLEY/SANGRE DE CRISTO MOUNTAINS...

CITY           SKY/WX    TMP DP  RH WIND       PRES   REMARKS
ALAMOSA        FAIR      12  -7  42 W7        30.49S WCI   1
DEL NORTE      FAIR      20  -8  28 W13       30.50F WCI   7
LA VETA PASS   FAIR      28 -11  17 SW22        N/A  WCI  15
SAGUACHE       FAIR      32  -9  16 NE5       30.50R WCI  27
$$

COZ035-036-038>040-110500-
...NORTHERN COLORADO FRONT RANGE...

CITY           SKY/WX    TMP DP  RH WIND       PRES   REMARKS
DENVER INTL AP FAIR      40  -5  14 SW13      30.31F
DMNS CITY PARK NOT AVBL
AURORA         PTCLDY    36  -3  18 S9        30.33F
FRONT RANGE AP FAIR      42  -4  14 SW12      30.33S
ERIE MUNI ARPT FAIR      26   9  48 CALM      30.36S
BOULDER MUN AP FAIR      52   0  11 SW7       30.30F
CENTENNIAL     FAIR      35  -1  21 S5        30.34S WCI  31
BROOMFIELD     CLEAR     50  -4  10 W18       30.32S
FORT COLLINS   FAIR      38   8  29 N5        30.31S
LONGMONT       FAIR      29   9  42 SW3       30.32S
$$

COZ041-046-047-076>085-087-088-110500-
...PIKES PEAK/PALMER DIVIDE AND SOUTHERN FOOTHILLS...

CITY           SKY/WX    TMP DP  RH WIND       PRES   REMARKS
COLO. SPRINGS  FAIR      28  -3  26 N8        30.37F WCI  20
A. F. ACADEMY  FAIR      22  -5  30 N16       30.37S WCI   8
SCHRIEVER AFB  FAIR      38  -4  16 NW6       30.37F
CHEYENNE MTN   FAIR      42  -8  12 CALM      30.32F
ELLICOTT         N/A    N/A N/A N/A N3        30.35F
FALCON         FAIR      32  -7  18 W8        30.38F WCI  25
FORT CARSON    FAIR      30  -2  25 N10       30.34F WCI  21
LIMON          FAIR      16  -5  39 N5        30.33S WCI   9
MONUMENT HILL  FAIR      28  -4  24 SW8       30.40R WCI  20
CANON CITY     FAIR      45   0  15 W13G21    30.35F
WALSENBURG     FAIR      41  -6  13 W10       30.37S
TRINIDAD       FAIR      29   5  36 NW8       30.36F WCI  21
$$

COZ042>045-048>051-090-091-110500-
...NORTHEAST COLORADO...

CITY           SKY/WX    TMP DP  RH WIND       PRES   REMARKS
GREELEY ARPT   FAIR      22   3  44 NW7       30.32S WCI  13
AKRON          FAIR      35  -3  19 W12       30.29R WCI  27
BURLINGTON     FAIR      26   1  34 W10       30.29S WCI  16
WRAY           FAIR      30   3  31 W8        30.27S WCI  23
YUMA           FAIR      27   1  33 W8        30.28R WCI  18
STERLING       FAIR      28   5  37 CALM      30.29R
HOLYOKE        FAIR      48   5  17 NW18G24   30.25S
FORT MORGAN    FAIR      30   1  29 W10       30.30S WCI  21
$$

COZ086-089-092>099-110500-
...SOUTHEAST COLORADO...

CITY           SKY/WX    TMP DP  RH WIND       PRES   REMARKS
PUEBLO         FAIR      28   1  31 W5        30.34S WCI  23
LA JUNTA       FAIR      36   3  25 W12       30.32S
LAMAR          FAIR      18  -2  41 SW8       30.29F WCI   8
SPRINGFIELD      N/A     21   3  45 SW5       30.32F WCI  15
$$




USA.gov is the U.S. government's official web portal to all federal, state and local government web resources and services.